EW1845 Weather Reports


Display with metric or nautical units.
time (UTC)temp
F
wind
direction
speed
MPH
gust
MPH
rain 1hr
in
rain 24hr
in
rain mn
in
humidity
%
barometer
mb
20260905060037 63 219 0.0 0.0 0.00 0.00 0.00 86 1012.3
20260905055025 64 219 0.0 0.0 0.00 0.00 0.00 87 1012.2
20260905054503 63 219 0.0 1.0 0.00 0.00 0.00 86 1012.3
20260905054018 64 219 0.0 0.0 0.00 0.00 0.00 86 1012.2
20260905053102 64 219 0.0 1.0 0.00 0.00 0.00 85 1012.2
20260905053026 64 219 0.0 0.0 0.00 0.00 0.00 85 1012.1
20260905052029 64 219 0.0 0.0 0.00 0.00 0.00 87 1012.2
20260905051502 63 219 0.0 1.0 0.00 0.00 0.00 86 1012.4
20260905051009 64 219 0.0 0.0 0.00 0.00 0.00 85 1012.3
20260905050006 64 219 0.0 0.0 0.00 0.00 0.00 85 1012.3
20260905044932 64 219 0.0 0.0 0.00 0.00 0.00 84 1012.1
20260905044604 64 219 0.0 1.0 0.00 0.00 0.00 82 1012.2
20260905043901 65 219 0.0 0.0 0.00 0.00 0.00 85 1012.0
20260905043002 64 219 0.0 0.0 0.00 0.00 0.00 83 1011.9
20260905041757 64 219 0.0 1.0 0.00 0.00 0.00 83 1011.8
20260905041602 64 219 0.0 1.0 0.00 0.00 0.00 84 1011.9
20260905040119 64 219 0.0 1.0 0.00 0.00 0.00 82 1011.7
20260905034517 65 219 0.0 0.0 0.00 0.00 0.00 81 1011.7
20260905034508 65 219 0.0 1.0 0.00 0.00 0.00 81 1011.7
20260905033517 66 219 0.0 0.0 0.00 0.00 0.00 83 1011.4
20260905033103 65 219 0.0 1.0 0.00 0.00 0.00 82 1011.4
20260905032451 66 219 0.0 0.0 0.00 0.00 0.00 80 1011.3
20260905031502 66 219 0.0 1.0 0.00 0.00 0.00 81 1011.2
20260905031446 66 219 0.0 0.0 0.00 0.00 0.00 81 1011.2
20260905030508 67 219 0.0 0.0 0.00 0.00 0.00 79 1011.1
20260905030003 67 219 0.0 1.0 0.00 0.00 0.00 79 1011.1
20260905024603 67 205 0.0 0.0 0.00 0.00 0.00 78 1011.0
20260905023105 68 205 0.0 0.0 0.00 0.00 0.00 77 1011.0
20260905022058 69 205 0.0 0.0 0.00 0.00 0.00 76 1011.0
20260905021502 69 214 0.0 2.0 0.00 0.00 0.00 76 1011.1
20260905021032 70 193 0.0 3.0 0.00 0.00 0.00 76 1011.1
20260905020024 71 242 0.0 2.0 0.00 0.00 0.00 75 1011.0
20260905020002 70 242 0.0 3.0 0.00 0.00 0.00 75 1011.1
20260905014604 71 219 0.0 6.0 0.00 0.00 0.00 73 1011.2
20260905013854 72 182 0.0 3.0 0.00 0.00 0.00 72 1011.2
20260905013003 72 259 1.0 4.0 0.00 0.00 0.00 71 1011.2
20260905012847 72 231 1.0 0.0 0.00 0.00 0.00 71 1011.2
20260905011602 72 210 1.0 6.0 0.00 0.00 0.00 69 1011.3
20260905010817 73 241 2.0 5.0 0.00 0.00 0.00 69 1011.3
20260905010108 73 172 3.0 6.0 0.00 0.00 0.00 69 1011.3
20260905005756 74 323 3.0 7.0 0.00 0.00 0.00 68 1011.4
20260905004820 74 240 2.0 7.0 0.00 0.00 0.00 66 1011.4
20260905004502 74 159 4.0 8.0 0.00 0.00 0.00 65 1011.3
20260905003802 75 225 2.0 6.0 0.00 0.00 0.00 63 1011.3
20260905003102 75 171 1.0 4.0 0.00 0.00 0.00 63 1011.3
20260905002814 76 214 2.0 6.0 0.00 0.00 0.00 62 1011.3
20260905001503 75 259 3.0 7.0 0.00 0.00 0.00 62 1011.2
20260905000724 76 238 2.0 7.0 0.00 0.00 0.00 61 1011.4
20260905000008 76 238 1.0 8.0 0.00 0.00 0.00 61 1011.2
20260904235724 76 227 2.0 7.0 0.00 0.00 0.00 59 1011.2
20260904234722 77 154 2.0 8.0 0.00 0.00 0.00 59 1011.3
20260904234602 76 187 2.0 9.0 0.00 0.00 0.00 60 1011.3
20260904233003 77 198 5.0 10.0 0.00 0.00 0.00 57 1011.3
20260904232556 78 236 3.0 9.0 0.00 0.00 0.00 57 1011.3
20260904231611 78 165 2.0 10.0 0.00 0.00 0.00 58 1011.2
20260904231602 78 204 3.0 8.0 0.00 0.00 0.00 58 1011.2
20260904230624 78 201 3.0 10.0 0.00 0.00 0.00 57 1011.3
20260904230109 78 167 3.0 11.0 0.00 0.00 0.00 59 1011.4
20260904224546 79 194 3.0 9.0 0.00 0.00 0.00 57 1011.4
20260904224503 78 190 5.0 10.0 0.00 0.00 0.00 57 1011.5
20260904223526 78 133 3.0 9.0 0.00 0.00 0.00 58 1011.5
20260904223109 78 224 2.0 7.0 0.00 0.00 0.00 58 1011.5
20260904222527 79 195 3.0 9.0 0.00 0.00 0.00 59 1011.5
20260904221503 79 246 4.0 10.0 0.00 0.00 0.00 58 1011.7
20260904221500 79 246 3.0 11.0 0.00 0.00 0.00 58 1011.6
20260904220508 79 266 3.0 11.0 0.00 0.00 0.00 60 1011.6
20260904220003 79 196 4.0 12.0 0.00 0.00 0.00 59 1011.7
20260904215505 79 253 3.0 10.0 0.00 0.00 0.00 61 1011.6
20260904214602 78 203 4.0 9.0 0.00 0.00 0.00 60 1011.7
20260904213401 78 257 4.0 10.0 0.00 0.00 0.00 61 1011.7
20260904213004 78 236 4.0 10.0 0.00 0.00 0.00 62 1011.7
20260904212412 78 233 3.0 13.0 0.00 0.00 0.00 62 1011.7
20260904211506 78 271 3.0 14.0 0.00 0.00 0.00 61 1011.8
20260904211343 78 287 4.0 13.0 0.00 0.00 0.00 61 1011.7
20260904210330 79 195 3.0 11.0 0.00 0.00 0.00 60 1011.7
20260904210002 78 238 4.0 11.0 0.00 0.00 0.00 59 1011.8
20260904205256 79 203 4.0 10.0 0.00 0.00 0.00 58 1011.7
20260904203127 81 246 3.0 10.0 0.00 0.00 0.00 52 1011.8
20260904203002 80 169 3.0 11.0 0.00 0.00 0.00 52 1011.8
20260904202150 82 199 2.0 9.0 0.00 0.00 0.00 47 1011.8
20260904201603 81 221 3.0 6.0 0.00 0.00 0.00 45 1012.0
20260904201148 82 207 0.0 5.0 0.00 0.00 0.00 47 1011.9
20260904200128 80 171 1.0 8.0 0.00 0.00 0.00 50 1012.1
20260904195139 79 271 3.0 12.0 0.00 0.00 0.00 48 1012.2
20260904194503 78 224 5.0 9.0 0.00 0.00 0.00 46 1012.3
20260904194127 78 195 4.0 12.0 0.00 0.00 0.00 50 1012.3
20260904193111 78 205 3.0 9.0 0.00 0.00 0.00 53 1012.5
20260904192029 78 160 2.0 9.0 0.00 0.00 0.00 56 1012.6
20260904191502 77 281 3.0 10.0 0.00 0.00 0.00 59 1012.7
20260904190003 76 145 3.0 8.0 0.00 0.00 0.00 61 1012.8
20260904185933 76 198 2.0 8.0 0.00 0.00 0.00 61 1012.7
20260904184952 76 236 3.0 8.0 0.00 0.00 0.00 60 1012.9
20260904184603 76 207 4.0 7.0 0.00 0.00 0.00 61 1012.9
20260904183003 75 167 2.0 7.0 0.00 0.00 0.00 63 1013.0
20260904182836 75 222 2.0 6.0 0.00 0.00 0.00 64 1013.0
20260904181829 75 131 2.0 7.0 0.00 0.00 0.00 65 1013.1
20260904181602 74 176 2.0 7.0 0.00 0.00 0.00 65 1013.2
20260904180123 73 198 3.0 7.0 0.00 0.00 0.00 65 1013.2
20260904175625 74 189 1.0 6.0 0.00 0.00 0.00 66 1013.2
20260904174637 74 105 2.0 7.0 0.00 0.00 0.00 69 1013.3
20260904174503 73 188 2.0 7.0 0.00 0.00 0.00 68 1013.3
20260904173636 72 188 3.0 7.0 0.00 0.00 0.00 69 1013.2
20260904173104 72 207 4.0 8.0 0.00 0.00 0.00 69 1013.2
20260904171553 72 161 1.0 6.0 0.00 0.00 0.00 70 1013.0
20260904171505 72 156 3.0 7.0 0.00 0.00 0.00 69 1013.0
20260904170524 72 245 1.0 4.0 0.00 0.00 0.00 71 1013.0
20260904170012 71 242 2.0 5.0 0.00 0.00 0.00 71 1012.9
20260904165449 71 248 0.0 4.0 0.00 0.00 0.00 74 1012.8
20260904164603 70 241 0.0 5.0 0.00 0.00 0.00 74 1012.8
20260904164442 70 168 1.0 4.0 0.00 0.00 0.00 74 1012.7
20260904163505 70 209 1.0 6.0 0.00 0.00 0.00 74 1012.5
20260904163005 69 199 2.0 7.0 0.00 0.00 0.00 75 1012.6
20260904162502 70 206 2.0 6.0 0.00 0.00 0.00 76 1012.6
20260904161633 70 229 3.0 7.0 0.00 0.00 0.00 75 1012.7
20260904160329 69 146 0.0 0.0 0.00 0.00 0.00 75 1012.5
20260904155301 68 63 0.0 5.0 0.00 0.00 0.00 80 1012.5
20260904154503 67 35 0.0 6.0 0.00 0.00 0.00 82 1012.6
20260904154322 67 58 1.0 5.0 0.00 0.00 0.00 83 1012.6
20260904153313 66 49 0.0 2.0 0.00 0.00 0.00 85 1012.7
20260904153104 65 44 1.0 3.0 0.00 0.00 0.00 85 1012.7
20260904152306 66 20 0.0 0.0 0.00 0.00 0.00 87 1012.6
20260904151503 64 44 0.0 3.0 0.00 0.00 0.00 88 1012.6
20260904151244 65 43 1.0 3.0 0.00 0.00 0.00 88 1012.5
20260904150008 64 23 0.0 2.0 0.00 0.00 0.00 88 1012.5
20260904145054 64 150 0.0 0.0 0.00 0.00 0.00 89 1012.3
20260904144608 63 53 0.0 4.0 0.00 0.00 0.00 89 1012.4
20260904144113 64 36 0.0 2.0 0.00 0.00 0.00 90 1012.2
20260904143130 63 49 0.0 2.0 0.00 0.00 0.00 90 1012.1
20260904143102 63 49 0.0 1.0 0.00 0.00 0.00 90 1012.2
20260904141503 62 43 0.0 3.0 0.00 0.00 0.00 91 1012.1
20260904140956 62 44 0.0 3.0 0.00 0.00 0.00 91 1012.0
20260904140003 61 31 0.0 2.0 0.00 0.00 0.00 91 1011.9
20260904135957 62 31 0.0 1.0 0.00 0.00 0.00 91 1011.9
20260904134603 61 27 0.0 2.0 0.00 0.00 0.00 90 1011.8
20260904133817 61 37 0.0 1.0 0.00 0.00 0.00 91 1011.6
20260904133006 61 32 0.0 2.0 0.00 0.00 0.00 91 1011.7
20260904132751 62 26 0.0 1.0 0.00 0.00 0.00 91 1011.6
20260904131743 62 43 0.0 1.0 0.00 0.00 0.00 91 1011.6
20260904131605 61 65 1.0 2.0 0.00 0.00 0.00 91 1011.7
20260904130736 61 23 0.0 1.0 0.00 0.00 0.00 91 1011.7
20260904130104 61 32 0.0 1.0 0.00 0.00 0.00 91 1011.7
20260904125724 61 32 0.0 0.0 0.00 0.00 0.00 92 1011.7
20260904124710 61 33 0.0 0.0 0.00 0.00 0.00 90 1011.6
20260904124502 61 33 0.0 1.0 0.00 0.00 0.00 91 1011.6
20260904123735 61 33 0.0 0.0 0.00 0.00 0.00 91 1011.6
20260904123102 61 33 0.0 1.0 0.00 0.00 0.00 91 1011.5
20260904121504 61 32 0.0 2.0 0.00 0.00 0.00 91 1011.4
20260904120416 62 33 0.0 0.0 0.00 0.00 0.00 91 1011.3
20260904120007 62 32 0.0 2.0 0.00 0.00 0.00 91 1011.3
20260904115418 62 33 0.0 1.0 0.00 0.00 0.00 91 1011.4
20260904114605 62 33 0.0 0.0 0.00 0.00 0.00 91 1011.4
20260904114433 62 33 0.0 0.0 0.00 0.00 0.00 91 1011.4
20260904113457 62 33 0.0 0.0 0.00 0.00 0.00 91 1011.4
20260904113008 62 33 0.0 1.0 0.00 0.00 0.00 91 1011.4
20260904112505 62 33 0.0 0.0 0.00 0.00 0.00 91 1011.4
20260904111602 62 33 0.0 0.0 0.00 0.00 0.00 91 1011.4
20260904111511 62 33 0.0 0.0 0.00 0.00 0.00 91 1011.4
20260904110437 63 33 0.0 0.0 0.00 0.00 0.00 91 1011.4
20260904110104 62 33 0.0 0.0 0.00 0.00 0.00 91 1011.4
20260904105420 63 33 0.0 0.0 0.00 0.00 0.00 91 1011.3
20260904104503 63 33 0.0 1.0 0.00 0.00 0.00 91 1011.5
20260904104349 63 33 0.0 0.0 0.00 0.00 0.00 91 1011.4
20260904103317 63 33 0.0 2.0 0.00 0.00 0.00 92 1011.3
20260904103102 62 32 1.0 3.0 0.00 0.00 0.00 92 1011.4
20260904102312 63 37 0.0 1.0 0.00 0.00 0.00 92 1011.4
20260904101503 62 41 0.0 1.0 0.00 0.00 0.00 92 1011.3
20260904101258 62 41 0.0 0.0 0.00 0.00 0.00 92 1011.3
20260904100311 62 27 0.0 1.0 0.00 0.00 0.00 93 1011.3
20260904100003 61 25 0.0 1.0 0.00 0.00 0.00 92 1011.3
20260904095312 61 25 0.0 0.0 0.00 0.00 0.00 93 1011.3
20260904094602 61 24 0.0 2.0 0.00 0.00 0.00 93 1011.2
20260904094247 61 25 0.0 1.0 0.00 0.00 0.00 92 1011.2
20260904093229 61 13 0.0 0.0 0.00 0.00 0.00 92 1011.2
20260904093003 60 13 0.0 1.0 0.00 0.00 0.00 92 1011.2
20260904092223 61 13 0.0 0.0 0.00 0.00 0.00 93 1011.2
20260904091602 60 13 1.0 1.0 0.00 0.00 0.00 92 1011.1
20260904091239 61 13 0.0 0.0 0.00 0.00 0.00 92 1011.1
20260904090300 60 13 0.0 0.0 0.00 0.00 0.00 92 1011.1
20260904090003 60 13 0.0 1.0 0.00 0.00 0.00 92 1011.2
20260904085244 60 13 0.0 0.0 0.00 0.00 0.00 92 1011.2
20260904084603 60 13 0.0 1.0 0.00 0.00 0.00 93 1011.3
20260904084305 61 13 0.0 0.0 0.00 0.00 0.00 93 1011.3
20260904083305 60 13 0.0 0.0 0.00 0.00 0.00 92 1011.4
20260904083003 60 13 0.0 1.0 0.00 0.00 0.00 92 1011.5
20260904082231 61 13 0.0 0.0 0.00 0.00 0.00 92 1011.4
20260904081605 60 22 0.0 1.0 0.00 0.00 0.00 92 1011.3
20260904080106 60 22 0.0 1.0 0.00 0.00 0.00 90 1011.5
20260904080010 60 22 0.0 0.0 0.00 0.00 0.00 91 1011.4
20260904074954 61 22 0.0 0.0 0.00 0.00 0.00 91 1011.6
20260904074502 60 23 0.0 1.0 0.00 0.00 0.00 91 1011.6
20260904073940 61 22 0.0 0.0 0.00 0.00 0.00 90 1011.5
20260904073108 61 22 0.0 1.0 0.00 0.00 0.00 90 1011.5
20260904071854 62 22 0.0 0.0 0.00 0.00 0.00 90 1011.4
20260904071502 61 22 0.0 2.0 0.00 0.00 0.00 91 1011.7
20260904070824 62 233 0.0 0.0 0.00 0.00 0.00 91 1011.6
20260904070004 61 231 0.0 1.0 0.00 0.00 0.00 90 1011.5
20260904065845 61 231 0.0 0.0 0.00 0.00 0.00 91 1011.6
20260904064813 62 231 0.0 0.0 0.00 0.00 0.00 91 1011.3
20260904064630 61 231 0.0 1.0 0.00 0.00 0.00 91 1011.4
20260904063837 62 229 0.0 0.0 0.00 0.00 0.00 91 1011.4
20260904063006 61 229 0.0 1.0 0.00 0.00 0.00 90 1011.3
20260904062833 61 229 0.0 0.0 0.00 0.00 0.00 90 1011.2
20260904061854 62 229 0.0 0.0 0.00 0.00 0.00 90 1011.2
20260904061602 61 229 0.0 1.0 0.00 0.00 0.00 89 1011.2